Regional Weather Roundup
Issued by NWS

Home | Current Version | Previous Version | Graphics & Text | Print | Product List | Glossary On
Versions: 1 2 3 4 5 6 7 8 9 10 11 12 13 14 15 16 17 18 19 20 21 22 23 24 25 26 27 28 29 30 31 32 33 34 35 36 37 38 39 40 41 42 43 44 45 46 47 48 49 50
208
ASUS45 KBOU 240907
RWRCO

WEATHER ROUNDUP FOR COLORADO
NATIONAL WEATHER SERVICE DENVER/BOULDER CO
300 AM MDT MON JUL 24 2017

NOTE: "FAIR" INDICATES FEW OR NO CLOUDS BELOW 12000 FEET WITH NO
SIGNIFICANT WEATHER AND/OR OBSTRUCTIONS TO VISIBILITY.

COZ001>005-013-030-031-241000-
...NORTHWEST COLORADO...

CITY           SKY/WX    TMP DP  RH WIND       PRES   REMARKS
CRAIG          FAIR      53  44  71 CALM      30.18S
HAYDEN         FAIR      59  34  38 SE6       30.21R
MEEKER         FAIR      58  42  55 E6        30.20F
RABBIT EARS PA FAIR      55  34  44 SW5       30.51F
STEAMBOAT SPGS FAIR      55  41  59 CALM      30.23S
WALDEN         NOT AVBL
$$

COZ006>008-011-241000-
...WEST CENTRAL VALLEYS...

CITY           SKY/WX    TMP DP  RH WIND       PRES   REMARKS
GRAND JUNCTION FAIR      73  49  42 E13       30.07F
MONTROSE       FAIR      63  49  60 E8        30.18F
EAGLE          FAIR      58  47  66 E6        30.26S
RIFLE          FAIR      66  46  48 E6        30.14F
DELTA          FAIR      67  47  48 N6        30.14S
NUCLA          FAIR      66  45  45 CALM      30.23S
$$

COZ017>023-064>068-241000-
...SOUTHWEST COLORADO...

CITY           SKY/WX    TMP DP  RH WIND       PRES   REMARKS
DURANGO        CLOUDY    62  54  74 N12       30.29F
CORTEZ         FAIR      65  57  75 W3        30.21S
PAGOSA SPRINGS MOCLDY    64  46  50 W10       30.36S
TELLURIDE      FAIR      61  44  55 CALM      30.45S
WOLF CREEK PAS CLOUDY    46  43  87 SW10G16   30.69S
$$

COZ009-010-012-014-032>034-037-058>063-241000-
...CENTRAL COLORADO...

CITY           SKY/WX    TMP DP  RH WIND       PRES   REMARKS
ASPEN          FAIR      56  42  59 SW7       30.31F
BUENA VISTA    FAIR      52  48  84 W3        30.36F
COPPER MTN     FAIR      54  36  50 S16       30.64F
BERTHOUD PASS  FAIR      45  32  61 W16G25    30.66F
COTTONWOOD PAS FAIR      61  36  39 SW3       30.49F
GUNNISON       FAIR      57  49  74 N7        30.36F
KREMMLING      FAIR      59  45  58 CALM      30.31S
LEADVILLE      FAIR      44  38  79 NE6       30.48F
SALIDA         FAIR      57  49  74 SW7       30.41F
SUNLIGHT       FAIR      52  36  54 SW9       30.56F
WILKERSON PASS FAIR      46  41  81 SW10      30.61F
$$

COZ069>075-241000-
...SAN LUIS VALLEY/SANGRE DE CRISTO MOUNTAINS...

CITY           SKY/WX    TMP DP  RH WIND       PRES   REMARKS
ALAMOSA        FAIR      54  50  86 S6        30.32S
DEL NORTE      FAIR      56  44  64 SW3       30.36S
LA VETA PASS   NOT AVBL
SAGUACHE         N/A    N/A N/A N/A MISG        N/A
$$

COZ035-036-038>040-241000-
...NORTHERN COLORADO FRONT RANGE...

CITY           SKY/WX    TMP DP  RH WIND       PRES   REMARKS
DENVER INTL AP FAIR      71  54  54 S20       30.09F
DMNS CITY PARK   N/A     73  51  45 SE12G21   30.08F
AURORA         PTCLDY    69  55  62 S17       30.12F
FRONT RANGE AP FAIR      70  55  60 S10       30.12F
ERIE MUNI ARPT FAIR      71  49  46 SW6       30.06F
BOULDER MUN AP FAIR      63  46  55 CALM      30.07S
CENTENNIAL     FAIR      69  55  60 S16       30.14F
BROOMFIELD     FAIR      70  50  49 S7        30.10F
FORT COLLINS   FAIR      65  50  58 CALM      30.06F
LONGMONT       FAIR      61  51  69 W3        30.07F
$$

COZ041-046-047-076>085-087-088-241000-
...PIKES PEAK/PALMER DIVIDE AND SOUTHERN FOOTHILLS...

CITY           SKY/WX    TMP DP  RH WIND       PRES   REMARKS
COLO. SPRINGS  FAIR      64  57  78 E9        30.23F
A. F. ACADEMY  FAIR      62  54  74 SE3       30.24F
SCHRIEVER AFB  FAIR      62  56  80 E9        30.23F
CHEYENNE MTN   FAIR      63  53  70 S5        30.22F
ELLICOTT       FAIR     N/A N/A N/A SE10      30.21F
FALCON           N/A     59  55  88 CALM      30.28F
FORT CARSON    FAIR      62  55  78 CALM      30.20F
LIMON          FAIR      61  59  93 SE7       30.17F
MONUMENT HILL  FAIR      59  54  82 S15       30.27F
CANON CITY     CLEAR     64  57  77 W6        30.16F
WALSENBURG     FAIR      61  50  67 CALM      30.21S
TRINIDAD       FAIR      62  52  69 SW10      30.21F
$$

COZ042>045-048>051-090-091-241000-
...NORTHEAST COLORADO...

CITY           SKY/WX    TMP DP  RH WIND       PRES   REMARKS
GREELEY ARPT   FAIR      74  56  53 S10       30.05F
AKRON          NOT AVBL
BURLINGTON     NOT AVBL
WRAY           NOT AVBL
YUMA           FAIR      64  50  59 S9        30.07F
STERLING       FAIR      70  59  68 SW9       30.03F
HOLYOKE        FAIR      63  55  77 S7        30.05F
FORT MORGAN    FAIR      69  56  64 S8        30.08F
$$

COZ086-089-092>099-241000-
...SOUTHEAST COLORADO...

CITY           SKY/WX    TMP DP  RH WIND       PRES   REMARKS
PUEBLO         FAIR      66  53  63 N5        30.12F
LA JUNTA       NOT AVBL
LAMAR          NOT AVBL
SPRINGFIELD      N/A     63  61  93 SW3       30.13F
$$




USA.gov is the U.S. government's official web portal to all federal, state and local government web resources and services.